N7YET Weather Reports


time (UTC)temp
F
wind
direction
speed
knots
gust
knots
rain 1hr
in
rain 24hr
in
rain mn
in
humidity
%
barometer
mb
20260505055356 42 27 10.4 13.0 0.00 0.00 0.00 51 1231.9
20260505054356 43 29 10.4 13.9 0.00 0.00 0.00 51 1231.9
20260505053355 43 26 11.3 16.5 0.00 0.00 0.00 51 1231.9
20260505052355 44 25 12.2 16.5 0.00 0.00 0.00 51 1231.9
20260505051354 44 21 11.3 16.5 0.00 0.00 0.00 51 1231.9
20260505050354 45 26 13.0 19.1 0.00 0.00 0.00 50 1231.9
20260505041351 46 28 16.5 23.5 0.00 0.00 0.00 47 1231.9
20260505040351 46 34 14.8 18.2 0.00 0.00 0.00 46 1231.9
20260505035350 46 36 15.6 21.7 0.00 0.00 0.00 45 1231.9
20260505034349 47 31 16.5 22.6 0.00 0.00 0.00 43 1231.9
20260505033349 47 33 14.8 20.0 0.00 0.00 0.00 42 1231.9
20260505032348 48 31 15.6 20.9 0.00 0.00 0.00 41 1231.9
20260505031347 48 33 15.6 20.0 0.00 0.00 0.00 40 1231.9
20260505030347 48 30 13.0 17.4 0.00 0.00 0.00 40 1231.9
20260505025346 48 29 13.0 19.1 0.00 0.00 0.00 40 1231.9
20260505024346 49 29 14.8 20.0 0.00 0.00 0.00 39 1231.9
20260505023345 49 29 16.5 21.7 0.00 0.00 0.00 39 1231.9
20260505022345 49 31 18.2 22.6 0.00 0.00 0.00 38 1231.9
20260505021344 49 23 18.2 25.2 0.00 0.00 0.00 38 1231.9
20260505020343 50 26 17.4 24.3 0.00 0.00 0.00 37 1231.9
20260505015343 51 26 17.4 22.6 0.00 0.00 0.00 36 1231.9
20260505014342 51 30 17.4 22.6 0.00 0.00 0.00 36 1231.9
20260505013341 52 31 20.0 23.5 0.00 0.00 0.00 35 1231.9
20260505012341 53 30 20.0 25.2 0.00 0.00 0.00 34 1231.9
20260505011340 54 33 19.1 23.5 0.00 0.00 0.00 34 1231.9
20260505010340 54 33 20.0 23.5 0.00 0.00 0.00 34 1231.9
20260505005339 54 23 20.0 25.2 0.00 0.00 0.00 34 1231.9
20260505004338 54 27 20.9 26.1 0.00 0.00 0.00 33 1231.9
20260505003338 55 25 20.0 23.5 0.00 0.00 0.00 33 1231.9
20260505002337 56 25 20.0 24.3 0.00 0.00 0.00 33 1231.9
20260505001336 57 22 19.1 23.5 0.00 0.00 0.00 32 1231.9
20260505000336 58 25 17.4 21.7 0.00 0.00 0.00 32 1231.9
20260504235335 58 27 18.2 22.6 0.00 0.00 0.00 32 1231.9
20260504234335 59 21 16.5 21.7 0.00 0.00 0.00 32 1231.9
20260504233334 61 16 15.6 22.6 0.00 0.00 0.00 32 1231.9
20260504232333 61 21 15.6 21.7 0.00 0.00 0.00 32 1231.9
20260504231333 64 20 15.6 21.7 0.00 0.00 0.00 32 1231.9
20260504230332 64 19 14.8 22.6 0.00 0.00 0.00 32 1231.9
20260504225331 65 23 13.9 20.0 0.00 0.00 0.00 31 1231.9
20260504224331 65 17 11.3 16.5 0.00 0.00 0.00 31 1231.9
20260504223330 65 15 9.6 14.8 0.00 0.00 0.00 31 1231.9
20260504222330 64 30 8.7 12.2 0.00 0.00 0.00 31 1231.9
20260504221329 63 7 8.7 12.2 0.00 0.00 0.00 32 1231.9
20260504220328 64 21 9.6 14.8 0.00 0.00 0.00 32 1231.9
20260504215328 64 17 9.6 14.8 0.00 0.00 0.00 32 1231.9
20260504214327 64 7 8.7 13.9 0.00 0.00 0.00 32 1231.9
20260504213327 64 21 7.8 13.0 0.00 0.00 0.00 32 1231.9
20260504212326 65 26 7.8 13.0 0.00 0.00 0.00 31 1231.9
20260504211326 65 10 8.7 13.0 0.00 0.00 0.00 31 1231.9
20260504210325 64 358 7.8 13.0 0.00 0.00 0.00 32 1231.9
20260504205325 64 26 6.1 11.3 0.00 0.00 0.00 33 1231.9
20260504204324 64 34 7.8 13.0 0.00 0.00 0.00 33 1231.9
20260504203323 63 24 7.8 14.8 0.00 0.00 0.00 33 1231.9
20260504202323 63 357 7.0 12.2 0.00 0.00 0.00 33 1231.9
20260504201322 62 9 7.8 11.3 0.00 0.00 0.00 34 1231.9
20260504200321 62 359 7.0 12.2 0.00 0.00 0.00 34 1231.9
20260504195321 62 6 7.0 12.2 0.00 0.00 0.00 34 1231.9
20260504194320 61 5 7.8 12.2 0.00 0.00 0.00 34 1231.9
20260504193320 61 10 8.7 13.9 0.00 0.00 0.00 34 1231.9
20260504192319 60 23 8.7 15.6 0.00 0.00 0.00 35 1231.9
20260504191319 60 27 7.8 14.8 0.00 0.00 0.00 35 1231.9
20260504190318 59 19 8.7 14.8 0.00 0.00 0.00 35 1231.9
20260504185317 59 14 8.7 12.2 0.00 0.00 0.00 36 1231.9
20260504184317 58 16 8.7 13.9 0.00 0.00 0.00 36 1231.9
20260504183316 58 29 7.8 13.9 0.00 0.00 0.00 36 1231.9
20260504182315 58 15 8.7 17.4 0.00 0.00 0.00 37 1231.9
20260504181315 57 17 8.7 14.8 0.00 0.00 0.00 37 1231.9
20260504180314 56 17 8.7 16.5 0.00 0.00 0.00 38 1231.9
20260504175314 56 24 10.4 17.4 0.00 0.00 0.00 38 1231.9
20260504174313 56 21 9.6 16.5 0.00 0.00 0.00 39 1231.9
20260504173313 56 21 9.6 13.9 0.00 0.00 0.00 39 1231.9
20260504172312 55 19 11.3 16.5 0.00 0.00 0.00 39 1231.9
20260504171311 55 36 13.0 17.4 0.00 0.00 0.00 39 1231.9
20260504170311 54 26 12.2 16.5 0.00 0.00 0.00 40 1231.9
20260504160307 53 4 9.6 13.9 0.00 0.00 0.00 42 1231.9
20260504150304 49 28 11.3 14.8 0.00 0.00 0.00 45 1231.9
20260504141301 47 30 9.6 15.6 0.00 0.00 0.00 46 1231.9
20260504140301 46 39 10.4 13.9 0.00 0.00 0.00 47 1231.9
20260504130257 44 40 7.8 10.4 0.00 0.00 0.00 51 1231.9
20260504120254 40 45 4.3 7.0 0.00 0.00 0.00 51 1231.9
20260504110250 36 0 0.0 0.0 0.00 0.00 0.00 51 1231.9
20260504100246 36 0 0.0 0.0 0.00 0.00 0.00 49 1231.9
20260504081239 44 129 0.0 3.5 0.00 0.00 0.00 33 1231.9
20260504080239 44 0 0.0 0.0 0.00 0.00 0.00 32 1231.9
20260504070235 49 148 3.5 4.3 0.00 0.00 0.00 31 1231.9
20260504060232 48 144 1.7 4.3 0.00 0.00 0.00 30 1231.9